Weather History for Salt Lake City, UT

Change the Weather History Date:

Tuesday, April 16, 2013

  Actual Average Record
Temperature  
Mean Temperature 42 °F 50 °F  
Max Temperature 45 °F 62 °F 84 °F (1936)
Min Temperature 39 °F 39 °F 25 °F (1922)
Degree Days  
Heating Degree Days 23 15  
Month to date heating degree days 259 261  
Since 1 July heating degree days 5117 5179  
Cooling Degree Days 0 0  
Month to date cooling degree days 0 0  
Year to date cooling degree days 0 0  
Moisture  
Dew Point 26 °F    
Average Humidity 60    
Maximum Humidity 79    
Minimum Humidity 40    
Precipitation  
Precipitation T in 0.06 in 1.12 in (1941)
Month to date precipitation 1.71 1.05  
Year to date precipitation 4.62 5.34  
Snow  
Snow 0.00 in 0.20 in 4.20 in (1941)
Month to date snowfall 0.0 2.8  
Since 1 July snowfall 69.8 54.7  
Snow Depth 0.00 in    
Sea Level Pressure  
Sea Level Pressure 29.74 in    
Wind  
Wind Speed 6 mph (North)    
Max Wind Speed 16 mph    
Max Gust Speed 22 mph    
Visibility 10 miles    
Events Snow    
T = Trace of Precipitation, MM = Missing Value Source: NWS Daily Summary

Daily Weather History Graph

Daily Weather History Graph

Search for Another Location

Airport:

Trip Planner

Search our weather history database for the weather conditions in past years. The results will help you decide how hot, cold, wet, or windy it might be!

Date:

Astronomy

Apr. 16, 2013 Rise Set
Actual Time 6:47 AM MDT 8:08 PM MDT
Civil Twilight 6:18 AM MDT 8:37 PM MDT
Nautical Twilight 5:44 AM MDT 9:11 PM MDT
Astronomical Twilight 5:08 AM MDT 9:47 PM MDT
Moon 11:08 AM MDT (4/16) 1:09 AM MDT (4/16)
Length of Visible Light 14h 18m
Length of Day
13h 21m
Waxing Crescent, 34% of the Moon is Illuminated
Apr 16
Waxing Crescent
Apr 18
First Quarter
Apr 25
Full
May 2
Last Quarter
May 9
New

Hourly Weather History & Observations

Time (MDT) Temp. Windchill Dew Point Humidity Pressure Visibility Wind Dir Wind Speed Gust Speed Precip Events Conditions
12:53 AM 44.1 °F - 23.0 °F 43% 29.64 in 10.0 mi Calm Calm - N/A   Overcast
1:53 AM 42.1 °F 39.2 °F 30.9 °F 65% 29.64 in 10.0 mi West 4.6 mph - N/A   Overcast
2:53 AM 42.1 °F 39.2 °F 30.9 °F 65% 29.61 in 10.0 mi NW 4.6 mph - N/A   Overcast
3:53 AM 41.0 °F 37.1 °F 33.1 °F 73% 29.61 in 10.0 mi North 5.8 mph - N/A   Overcast
4:53 AM 39.9 °F 34.5 °F 30.9 °F 70% 29.61 in 10.0 mi North 8.1 mph - N/A   Overcast
5:53 AM 39.2 °F 35.9 °F 32.0 °F 75% 29.65 in 10.0 mi North 4.6 mph - N/A   Overcast
6:53 AM 41.0 °F 36.4 °F 28.0 °F 60% 29.63 in 10.0 mi ENE 6.9 mph - N/A   Overcast
7:53 AM 41.0 °F 36.4 °F 30.0 °F 65% 29.66 in 10.0 mi ESE 6.9 mph - N/A   Mostly Cloudy
8:53 AM 39.9 °F 36.7 °F 28.9 °F 65% 29.68 in 9.0 mi Variable 4.6 mph - 0.00 in   Unknown
9:05 AM 39.2 °F 35.0 °F 30.2 °F 70% 29.71 in 10.0 mi SE 5.8 mph - 0.00 in   Mostly Cloudy
9:53 AM 41.0 °F 34.7 °F 26.1 °F 55% 29.69 in 10.0 mi NNE 10.4 mph - 0.00 in   Overcast
10:53 AM 42.1 °F 35.2 °F 26.1 °F 53% 29.72 in 10.0 mi North 12.7 mph - N/A   Mostly Cloudy
11:53 AM 41.0 °F 36.4 °F 30.9 °F 67% 29.74 in 10.0 mi West 6.9 mph - 0.00 in   Mostly Cloudy
12:53 PM 43.0 °F 41.3 °F 26.1 °F 51% 29.74 in 10.0 mi West 3.5 mph - N/A   Mostly Cloudy
1:53 PM 44.1 °F 40.1 °F 25.0 °F 47% 29.76 in 10.0 mi NW 6.9 mph - N/A   Overcast
2:53 PM 44.1 °F 40.8 °F 25.0 °F 47% 29.78 in 10.0 mi NNW 5.8 mph - N/A   Overcast
3:53 PM 44.1 °F 39.5 °F 25.0 °F 47% 29.80 in 10.0 mi North 8.1 mph - N/A   Overcast
4:53 PM 45.0 °F 42.6 °F 25.0 °F 46% 29.81 in 10.0 mi North 4.6 mph - N/A   Mostly Cloudy
5:53 PM 45.0 °F 43.5 °F 24.1 °F 44% 29.81 in 10.0 mi Variable 3.5 mph - N/A   Mostly Cloudy
6:53 PM 44.1 °F 41.5 °F 21.9 °F 42% 29.83 in 10.0 mi NNW 4.6 mph - N/A   Mostly Cloudy
7:53 PM 43.0 °F 40.3 °F 19.9 °F 40% 29.85 in 10.0 mi NNE 4.6 mph - N/A   Mostly Cloudy
8:53 PM 42.1 °F 37.1 °F 19.0 °F 40% 29.87 in 10.0 mi East 8.1 mph - N/A   Mostly Cloudy
9:53 PM 39.9 °F 35.8 °F 17.1 °F 40% 29.90 in 10.0 mi East 5.8 mph - N/A   Mostly Cloudy
10:53 PM 39.0 °F - 17.1 °F 41% 29.90 in 10.0 mi Calm Calm - N/A   Mostly Cloudy
11:53 PM 37.9 °F - 16.0 °F 41% 29.91 in 10.0 mi Calm Calm - N/A   Mostly Cloudy